Weather History for Black River Falls, WI

Change the Weather History Date:

Friday, August 30, 2013

  Actual Average (KLSE) Record (KLSE)
Temperature  
Mean Temperature 78 °F 69 °F  
Max Temperature 89 °F 79 °F 97 °F (2012)
Min Temperature 67 °F 59 °F 35 °F (1915)
Degree Days  
Heating Degree Days 0 1  
Month to date heating degree days 10  
Since 1 June heating degree days 53  
Since 1 July heating degree days 15  
Cooling Degree Days 12 5  
Month to date cooling degree days 209  
Year to date cooling degree days 696  
Since 1 June cooling degree days 648  
Growing Degree Days 28 (Base 50)    
Moisture  
Dew Point 68 °F    
Average Humidity 71    
Maximum Humidity 100    
Minimum Humidity 37    
Precipitation  
Precipitation 0.00 in 0.13 in 2.56 in (1962)
Month to date precipitation 4.15  
Year to date precipitation 23.82  
Snow  
Snow 0.00 in 0.00 in 0.00 in (2002)
Month to date snowfall 0.0  
Since 1 June snowfall 0.0  
Since 1 July snowfall 0.0  
Snow Depth -    
Sea Level Pressure  
Sea Level Pressure 29.86 in    
Wind  
Wind Speed 5 mph (North)    
Max Wind Speed 12 mph    
Max Gust Speed 16 mph    
Visibility 9 miles    
Events      
T = Trace of Precipitation, MM = Missing Value Source: NWS Daily Summary

Daily Weather History Graph

Daily Weather History Graph

Search for Another Location

Airport:

Trip Planner

Search our weather history database for the weather conditions in past years. The results will help you decide how hot, cold, wet, or windy it might be!

Date:

Astronomy

Aug. 30, 2013 Rise Set
Actual Time 6:24 AM CDT 7:42 PM CDT
Civil Twilight 5:54 AM CDT 8:12 PM CDT
Nautical Twilight 5:18 AM CDT 8:48 PM CDT
Astronomical Twilight 4:39 AM CDT 9:26 PM CDT
Moon 12:56 AM CDT (8/30) 4:04 PM CDT (8/30)
Length of Visible Light 14h 18m
Length of Day
13h 18m
Waning Crescent, 29% of the Moon is Illuminated
Aug 30
Waning Crescent
Sep 5
New
Sep 12
First Quarter
Sep 19
Full
Sep 26
Last Quarter

Hourly Weather History & Observations

Time (CDT) Temp. Heat Index Dew Point Humidity Pressure Visibility Wind Dir Wind Speed Gust Speed Precip Events Conditions
12:15 AM 76.1 °F - 74.3 °F 94% 29.91 in 10.0 mi South 3.5 mph - N/A   Scattered Clouds
12:55 AM 76.6 °F - 74.5 °F 93% 29.91 in 10.0 mi Calm Calm - N/A   Scattered Clouds
1:15 AM 76.5 °F - 74.5 °F 94% 29.90 in 10.0 mi South 3.5 mph - N/A   Scattered Clouds
1:35 AM 76.1 °F - 74.3 °F 94% 29.90 in 10.0 mi South 3.5 mph - N/A   Clear
2:15 AM 76.3 °F - 74.5 °F 94% 29.89 in 10.0 mi Calm Calm - N/A   Clear
2:35 AM 75.6 °F - 74.5 °F 96% 29.89 in 7.0 mi SSW 3.5 mph - N/A   Clear
2:55 AM 74.7 °F - 74.3 °F 99% 29.87 in 7.0 mi South 4.6 mph - N/A   Clear
3:15 AM 74.8 °F - 74.3 °F 98% 29.86 in 7.0 mi SSW 4.6 mph - N/A   Clear
3:35 AM 75.4 °F - 74.7 °F 98% 29.86 in 7.0 mi SW 3.5 mph - N/A   Clear
3:55 AM 75.2 °F - 74.7 °F 98% 29.85 in 7.0 mi SSW 5.8 mph - N/A   Clear
4:15 AM 75.2 °F - 74.8 °F 99% 29.85 in 7.0 mi SSW 5.8 mph - N/A   Clear
4:35 AM 75.4 °F - 75.2 °F 99% 29.84 in 7.0 mi SSW 6.9 mph - N/A   Clear
4:55 AM 75.4 °F - 75.2 °F 99% 29.84 in 5.0 mi SSW 5.8 mph - N/A   Clear
5:15 AM 75.6 °F - 75.2 °F 99% 29.84 in 5.0 mi Calm Calm - N/A   Scattered Clouds
5:35 AM 75.4 °F - 75.2 °F 99% 29.84 in 5.0 mi South 4.6 mph - N/A   Mostly Cloudy
5:55 AM 74.8 °F - 74.8 °F 100% 29.83 in 5.0 mi SSW 3.5 mph - N/A   Scattered Clouds
6:15 AM 75.0 °F - 75.0 °F 100% 29.83 in 5.0 mi SSW 3.5 mph - N/A   Mostly Cloudy
6:35 AM 75.2 °F - 75.2 °F 100% 29.83 in 5.0 mi Calm Calm - N/A   Overcast
6:55 AM 75.6 °F - 75.2 °F 99% 29.83 in 5.0 mi SSW 4.6 mph - N/A   Overcast
7:15 AM 75.4 °F - 75.2 °F 99% 29.83 in 5.0 mi Calm Calm - N/A   Scattered Clouds
7:35 AM 76.1 °F - 75.2 °F 97% 29.84 in 7.0 mi Calm Calm - N/A   Scattered Clouds
7:55 AM 77.5 °F - 75.6 °F 94% 29.84 in 7.0 mi SSW 3.5 mph - N/A   Scattered Clouds
9:15 AM 80.8 °F 85.2 °F 72.5 °F 76% 29.84 in 10.0 mi West 5.8 mph - N/A   Mostly Cloudy
9:35 AM 81.9 °F 86.4 °F 71.6 °F 71% 29.84 in 10.0 mi West 8.1 mph - N/A   Overcast
9:55 AM 83.1 °F 87.6 °F 70.9 °F 66% 29.84 in 10.0 mi West 3.5 mph - N/A   Overcast
10:15 AM 83.3 °F 87.9 °F 71.1 °F 66% 29.84 in 10.0 mi NNW 5.8 mph - N/A   Overcast
10:35 AM 82.8 °F 87.4 °F 71.1 °F 68% 29.84 in 10.0 mi NW 8.1 mph - N/A   Overcast
10:55 AM 81.7 °F 85.8 °F 71.1 °F 70% 29.84 in 10.0 mi NNW 6.9 mph - N/A   Overcast
11:15 AM 82.4 °F 86.7 °F 70.7 °F 68% 29.85 in 10.0 mi NNW 6.9 mph - N/A   Overcast
11:35 AM 82.6 °F 86.8 °F 70.5 °F 67% 29.85 in 10.0 mi North 5.8 mph - N/A   Overcast
11:55 AM 83.3 °F 86.9 °F 69.3 °F 62% 29.86 in 10.0 mi North 8.1 mph - N/A   Overcast
12:15 PM 84.6 °F 88.2 °F 68.7 °F 59% 29.86 in 10.0 mi NNW 4.6 mph - N/A   Overcast
12:35 PM 85.3 °F 88.5 °F 68.2 °F 56% 29.86 in 10.0 mi North 9.2 mph - N/A   Mostly Cloudy
12:55 PM 85.6 °F 89.1 °F 68.2 °F 56% 29.85 in 10.0 mi NNW 10.4 mph - N/A   Scattered Clouds
1:15 PM 86.9 °F 89.6 °F 66.7 °F 51% 29.85 in 10.0 mi North 9.2 mph - N/A   Scattered Clouds
1:35 PM 87.1 °F 89.2 °F 65.8 °F 49% 29.86 in 10.0 mi North 9.2 mph - N/A   Mostly Cloudy
1:55 PM 88.2 °F 89.3 °F 64.0 °F 44% 29.86 in 10.0 mi North 11.5 mph - N/A   Mostly Cloudy
2:15 PM 87.6 °F 88.2 °F 62.8 °F 43% 29.86 in 10.0 mi North 9.2 mph - N/A   Scattered Clouds
2:35 PM 88.0 °F 88.7 °F 62.6 °F 43% 29.86 in 10.0 mi NNW 8.1 mph 16.1 mph N/A   Scattered Clouds
2:55 PM 87.1 °F 87.5 °F 62.1 °F 43% 29.85 in 10.0 mi NNE 4.6 mph - N/A   Scattered Clouds
3:15 PM 87.3 °F 87.5 °F 61.7 °F 42% 29.84 in 10.0 mi NNE 10.4 mph - N/A   Mostly Cloudy
3:35 PM 88.7 °F 88.3 °F 60.1 °F 38% 29.84 in 10.0 mi North 8.1 mph - N/A   Scattered Clouds
3:55 PM 88.0 °F 87.4 °F 59.7 °F 38% 29.84 in 10.0 mi NNW 8.1 mph - N/A   Clear
4:15 PM 88.3 °F 87.6 °F 59.2 °F 37% 29.84 in 10.0 mi NNW 6.9 mph - N/A   Clear
4:35 PM 88.3 °F 87.8 °F 59.9 °F 38% 29.84 in 10.0 mi North 9.2 mph - N/A   Clear
4:55 PM 87.8 °F 87.4 °F 60.1 °F 39% 29.84 in 10.0 mi North 8.1 mph - N/A   Clear
5:15 PM 88.0 °F 87.4 °F 59.5 °F 38% 29.83 in 10.0 mi North 9.2 mph - N/A   Clear
5:35 PM 88.0 °F 87.9 °F 60.8 °F 40% 29.83 in 10.0 mi NE 10.4 mph - N/A   Clear
5:55 PM 86.4 °F 86.3 °F 60.8 °F 42% 29.84 in 10.0 mi NE 11.5 mph - N/A   Scattered Clouds
6:15 PM 85.3 °F 85.0 °F 59.9 °F 42% 29.84 in 10.0 mi NNE 10.4 mph - N/A   Scattered Clouds
6:35 PM 84.2 °F 84.0 °F 59.4 °F 43% 29.84 in 10.0 mi NNE 9.2 mph - N/A   Clear
6:55 PM 83.1 °F 83.2 °F 59.9 °F 45% 29.84 in 10.0 mi NE 9.2 mph - N/A   Clear
7:15 PM 81.5 °F 82.1 °F 60.8 °F 49% 29.85 in 10.0 mi NE 6.9 mph - N/A   Clear
7:35 PM 79.0 °F - 61.3 °F 55% 29.86 in 10.0 mi ENE 5.8 mph - N/A   Clear
7:55 PM 76.8 °F - 61.9 °F 60% 29.86 in 10.0 mi ENE 4.6 mph - N/A   Clear
8:15 PM 74.8 °F - 62.6 °F 66% 29.87 in 10.0 mi ENE 6.9 mph - N/A   Scattered Clouds
8:35 PM 75.6 °F - 62.8 °F 64% 29.87 in 10.0 mi ENE 8.1 mph - N/A   Scattered Clouds
8:55 PM 74.7 °F - 63.0 °F 67% 29.88 in 10.0 mi NE 5.8 mph - N/A   Clear
9:15 PM 73.4 °F - 62.8 °F 69% 29.89 in 10.0 mi ENE 4.6 mph - N/A   Clear
9:35 PM 71.1 °F - 62.6 °F 75% 29.88 in 10.0 mi NE 4.6 mph - N/A   Clear
9:55 PM 71.8 °F - 62.6 °F 73% 29.88 in 10.0 mi NE 3.5 mph - N/A   Clear
10:15 PM 70.0 °F - 62.6 °F 77% 29.89 in 10.0 mi NE 4.6 mph - N/A   Clear
10:35 PM 69.4 °F - 62.8 °F 79% 29.88 in 10.0 mi ENE 4.6 mph - N/A   Mostly Cloudy
10:55 PM 69.6 °F - 62.8 °F 79% 29.89 in 10.0 mi NE 4.6 mph - N/A   Mostly Cloudy
11:15 PM 68.0 °F - 62.4 °F 82% 29.88 in 10.0 mi ENE 3.5 mph - N/A   Scattered Clouds
11:35 PM 67.8 °F - 62.6 °F 83% 29.89 in 10.0 mi ENE 5.8 mph - N/A   Clear
11:55 PM 68.9 °F - 62.6 °F 80% 29.88 in 10.0 mi East 5.8 mph - N/A   Clear